User: anonymous   Login
Location: Wald
(31.7579°N, 86.6655°W)
Time: 10:11:59
(UTC+00:00)
Language:

SL-16 R/B - Orbit

View from above orbital plane
View from above orbital plane
View from above satellite
View from above satellite

Ground track
Ground track

The orbit data is extracted from the following two-line orbital elements,

1 27006U 01056F   20269.87903920 -.00000052 +00000-0 -90792-5 0  9995
2 27006 099.4878 039.9189 0015448 081.5800 026.9775 13.70964595940384
Epoch (UTC): 25 September 2020 21:05:48
Eccentricity: 0.0015448
inclination: 99.4878°
perigee height: 985 km
apogee height: 1007 km
right ascension of ascending node: 39.9189°
argument of perigee: 81.5800°
revolutions per day: 13.70964595
mean anomaly at epoch: 26.9775°
orbit number at epoch: 94038

The dashed part of the orbit path shows where the satellite is in the earth's shadow,  

DLR